#timestamp,LO_Frequency,Hit,StdDev 
1708747215.3,286046998.4,N
1708747235.1,286046997.2,N
1708747255.8,286046997.5,N
1708747275.7,286046995.0,N
1708747295.5,286046998.4,N
1708747315.4,286046998.4,N
1708747335.2,286046998.5,N
1708747355.0,286047000.7,N
1708747355.9,286047000.7,N
1708747375.8,286046999.9,N
1708747395.6,286047002.2,N
1708747415.4,286047004.0,N
1708747435.3,286047004.4,N
1708747455.1,286047004.1,N
1708747475.8,286047003.8,N
1708747495.7,286047003.0,N
1708747515.5,286047000.6,N
1708747535.4,286047001.0,N
1708747555.2,286047000.8,N
1708747575.0,286047000.4,N
1708747575.9,286047000.4,N
1708747595.8,286047001.9,N
1708747615.6,286047002.0,N
1708747635.4,286047001.9,N
1708747655.3,286047004.0,N
1708747675.1,286046999.9,N
1708747695.9,286047002.8,N
1708747715.7,286046999.8,N
1708747735.5,286047002.3,N
1708747755.4,286047002.0,N
1708747775.2,286047001.7,N
1708747795.0,286047001.6,N
1708747795.9,286047001.6,N
1708747815.8,286047004.4,N
1708747835.6,286047001.4,N
1708747855.5,286047000.3,N
1708747875.3,286047000.3,N
1708747895.1,286047002.2,N
1708747915.9,286047004.4,Y
1708747935.7,286047002.3,P
1708747955.5,286047000.7,N
1708747975.4,286046998.9,N
1708747995.2,286047000.5,N
1708748015.1,286046999.2,N
1708748016.0,286046999.2,N
1708748035.8,286046996.7,N
1708748055.6,286046996.5,N
1708748075.5,286046997.7,N
1708748095.3,286046997.9,N
1708748115.1,286046997.2,N
1708748135.9,286046996.7,N
1708748155.7,286046996.5,N
1708748175.6,286046997.7,N
1708748195.4,286046997.3,N
1708748215.2,286046999.6,N
1708748235.1,286046996.7,N
1708748236.0,286046996.7,N
1708748255.8,286046999.5,N
1708748275.6,286046999.1,N
1708748295.5,286046998.4,N
1708748315.3,286047000.5,N
1708748335.1,286047000.8,N
1708748355.9,286046998.1,N
1708748375.7,286047000.9,N
1708748395.6,286046998.3,N
1708748415.4,286046998.5,N
1708748435.2,286046999.7,N
1708748455.1,286047001.6,N
1708748456.0,286047001.6,N
1708748475.8,286047002.2,N
1708748495.6,286047001.5,N
1708748515.5,286047000.6,N
1708748535.3,286047000.8,N
1708748555.2,286047000.0,N
1708748575.9,286046999.8,N
1708748595.7,286047000.3,N
1708748615.6,286047002.7,N
1708748635.4,286047000.2,N
1708748655.2,286047002.2,N
1708748675.1,286047002.5,N
1708748676.0,286047002.5,N
1708748695.8,286047001.0,N
1708748715.7,286047000.8,N
1708748735.5,286047002.0,N
1708748755.3,286047001.5,N
1708748775.2,286047000.1,N
1708748795.9,286046999.9,N
1708748815.7,286047002.7,N
1708748835.6,286047002.6,N
1708748855.4,286047000.8,N
1708748875.2,286047000.6,N
1708748895.1,286047002.3,N
1708748896.0,286047002.3,N
1708748915.8,286047001.3,N
1708748935.7,286047002.8,N
1708748955.5,286047000.4,N
1708748975.3,286047000.3,N
1708748995.2,286047002.7,N
1708749015.0,286047001.6,N
1708749015.9,286047001.6,N
1708749035.7,286047000.2,N
1708749055.6,286046999.0,N
1708749075.4,286046996.5,Y
1708749095.3,286046998.6,P
1708749115.1,286047000.6,N
1708749135.8,286047001.0,N
1708749155.7,286046999.9,N
1708749175.5,286046998.3,N
1708749195.4,286046998.6,N
1708749215.2,286046998.4,N
1708749235.0,286046998.8,N
1708749235.9,286046998.8,N
1708749255.8,286047001.0,N
1708749275.6,286047000.6,N
1708749295.4,286047000.5,N
1708749315.3,286047002.3,N
1708749335.1,286047001.7,N
1708749355.8,286047003.7,N
1708749375.7,286047003.5,N
1708749395.5,286047001.7,N
1708749415.4,286047000.1,N
1708749435.2,286047000.5,N
1708749455.0,286047001.1,N
1708749455.9,286047001.1,N
1708749475.8,286047001.0,N
1708749495.6,286047000.8,N
1708749515.4,286046996.6,N
1708749535.3,286046997.8,N
1708749555.1,286046995.1,N
1708749575.9,286046997.3,N
1708749595.7,286046997.1,N
1708749615.5,286046997.6,N
1708749635.4,286046997.7,N
1708749655.2,286046999.4,N
1708749675.0,286047001.2,N
1708749675.9,286047001.2,N
1708749695.8,286047000.4,N
1708749715.6,286047000.8,N
1708749735.4,286046999.4,N
1708749755.3,286046998.6,N
1708749775.1,286047000.0,N
1708749795.9,286046998.1,N
1708749815.7,286046999.1,N
1708749835.5,286046998.9,N
1708749855.4,286047001.1,N
1708749875.2,286046998.1,N
1708749895.0,286047000.4,N
1708749895.9,286047000.4,N
1708749915.8,286047000.3,N
1708749935.6,286047002.0,N
1708749955.5,286047002.7,N
1708749975.3,286047000.5,N
1708749995.1,286047000.9,N
1708750015.9,286047000.4,N
1708750035.7,286047000.0,N
1708750055.5,286047001.8,N
1708750075.4,286047003.9,N
1708750095.2,286047004.0,N
1708750115.0,286047001.7,N
1708750116.0,286047001.7,N
1708750135.8,286047004.4,N
1708750155.6,286047001.9,N
1708750175.5,286047001.9,N
1708750195.3,286047000.1,N
1708750215.1,286047002.0,N
1708750235.9,286047002.5,N
1708750255.7,286047000.2,N
1708750275.5,286047001.2,N
1708750295.4,286046998.4,N
1708750315.2,286046999.3,N
1708750335.1,286047000.8,N
1708750336.0,286047000.8,N
1708750355.8,286047000.5,N
1708750375.6,286047000.0,N
1708750395.5,286047002.3,N
1708750415.3,286047002.3,N
1708750435.1,286046999.8,N
1708750455.9,286047002.2,N
1708750475.7,286047001.7,N
1708750495.6,286047001.4,N
1708750515.4,286047002.5,N
1708750535.2,286047004.3,Y
1708750555.1,286047001.2,P
1708750556.0,286047001.2,P
1708750575.8,286046998.4,P
1708750595.7,286046998.4,N
1708750615.5,286047000.5,N
1708750635.3,286046999.9,N
1708750655.2,286047000.1,N
1708750675.9,286047000.1,N
1708750695.7,286047002.8,N
1708750715.6,286047001.1,N
1708750735.4,286047001.6,N
1708750755.2,286047001.5,N
1708750775.1,286047001.5,N
1708750776.0,286047001.5,N
1708750795.8,286047003.9,Y
